OK1PHU-6 Weather Reports


time (UTC)temp
C
wind
direction
speed
KPH
gust
KPH
rain 1hr
cm
rain 24hr
cm
rain mn
cm
humidity
%
barometer
mb
20260507211106 -17 0 0.0 1.6 0.00 0.00 0.00 1015.0
20260507210024 -17 270 0.0 3.2 0.00 0.00 0.00 1015.0
20260507204940 -17 0 0.0 4.8 0.00 0.00 0.00 1014.8
20260507203855 -17 0 1.6 3.2 0.00 0.00 0.00 1014.8
20260507202812 -17 0 1.6 4.8 0.00 0.00 0.00 1014.6
20260507201729 -17 293 0.0 4.8 0.00 0.00 0.00 1014.5
20260507200646 -17 315 0.0 4.8 0.00 0.00 0.00 1014.3
20260507195601 -17 0 1.6 4.8 0.00 0.00 0.00 1014.1
20260507194516 -17 0 3.2 4.8 0.00 0.00 0.00 1014.1
20260507193433 -17 0 3.2 9.7 0.00 0.00 0.00 1014.1
20260507192347 -17 0 4.8 8.0 0.00 0.00 0.00 1013.9
20260507191300 -17 338 6.4 9.7 0.00 0.00 0.00 1013.8
20260507190217 -17 0 6.4 16.1 0.00 0.00 0.00 1013.5
20260507185132 -17 0 6.4 16.1 0.00 0.00 0.00 1013.3
20260507184047 -17 0 4.8 12.9 0.00 0.00 0.00 1013.0
20260507183000 -17 45 8.0 16.1 0.00 0.00 0.00 1012.6
20260507181918 -17 315 0.0 6.4 0.00 0.00 0.00 1012.2
20260507180833 -17 0 1.6 8.0 0.00 0.00 0.00 1012.0
20260507175749 -17 0 9.7 14.5 0.00 0.00 0.00 1012.0
20260507174706 -17 338 8.0 8.0 0.00 0.00 0.00 1011.9
20260507173622 -17 23 6.4 9.7 0.00 0.00 0.00 1011.5
20260507172537 -17 270 8.0 12.9 0.00 0.00 0.00 1011.4
20260507171456 -17 270 8.0 11.3 0.00 0.00 0.00 1011.4
20260507170412 -17 338 4.8 9.7 0.00 0.00 0.00 1011.3
20260507165328 -17 338 4.8 8.0 0.00 0.00 0.00 1011.3
20260507164246 -17 45 6.4 11.3 0.00 0.00 0.00 1011.2
20260507163203 -17 0 1.6 11.3 0.00 0.00 0.00 1011.1
20260507162121 -17 315 3.2 12.9 0.00 0.00 0.00 1011.1
20260507161041 -17 45 4.8 11.3 0.00 0.00 0.00 1011.0
20260507155953 -17 315 9.7 17.7 0.00 0.00 0.00 1010.8
20260507154911 -17 270 6.4 17.7 0.00 0.00 0.00 1010.8
20260507153827 -17 0 8.0 16.1 0.00 0.00 0.00 1010.7
20260507152743 -17 0 8.0 16.1 0.00 0.00 0.00 1010.6
20260507151658 -17 0 8.0 16.1 0.00 0.00 0.00 1010.5
20260507150615 -17 45 4.8 12.9 0.00 0.00 0.00 1010.4
20260507145532 -17 45 6.4 12.9 0.00 0.00 0.00 1010.2
20260507144449 -17 338 6.4 11.3 0.00 0.00 0.00 1010.2
20260507143406 -17 315 3.2 12.9 0.00 0.00 0.00 1010.4
20260507142322 -17 225 4.8 16.1 0.00 0.00 0.00 1010.6
20260507141238 -17 270 1.6 8.0 0.00 0.00 0.00 1010.6
20260507140154 -17 270 4.8 17.7 0.00 0.00 0.00 1010.8
20260507135108 -17 293 11.3 22.5 0.00 0.00 0.00 1010.8
20260507134025 -17 0 4.8 14.5 0.00 0.00 0.00 1010.5
20260507132941 -17 0 16.1 19.3 0.00 0.00 0.00 1010.4
20260507131854 -17 293 3.2 12.9 0.00 0.00 0.00 1010.4
20260507130810 -17 315 8.0 17.7 0.00 0.00 0.00 1010.6
20260507125726 -17 293 9.7 12.9 0.00 0.00 0.00 1010.5
20260507124649 -17 45 3.2 16.1 0.00 0.00 0.00 1010.4
20260507123559 -17 315 9.7 16.1 0.00 0.00 0.00 1010.5
20260507122515 -17 315 6.4 16.1 0.00 0.00 0.00 1010.4
20260507121436 -17 270 11.3 20.9 0.00 0.00 0.00 1010.3
20260507120352 -17 270 12.9 16.1 0.00 0.00 0.00 1010.4
20260507115310 -17 315 9.7 12.9 0.00 0.00 0.00 1010.5
20260507114227 -17 270 17.7 27.4 0.00 0.00 0.00 1010.5
20260507113143 -17 270 20.9 24.1 0.00 0.00 0.00 1010.5
20260507112059 -17 0 4.8 27.4 0.00 0.00 0.00 1010.4
20260507111016 -17 248 14.5 25.7 0.00 0.00 0.00 1010.4
20260507105933 -17 315 9.7 14.5 0.00 0.00 0.00 1010.4
20260507104851 -17 338 8.0 17.7 0.00 0.00 0.00 1010.3
20260507103809 -17 270 3.2 19.3 0.00 0.00 0.00 1010.3
20260507102727 -17 270 14.5 25.7 0.00 0.00 0.00 1010.4
20260507101643 -17 45 6.4 14.5 0.00 0.00 0.00 1010.3
20260507100557 -17 293 16.1 22.5 0.00 0.00 0.00 1010.4
20260507095514 -17 45 3.2 19.3 0.00 0.00 0.00 1010.5
20260507094431 -17 315 8.0 16.1 0.00 0.00 0.00 1010.6
20260507093347 -17 270 11.3 19.3 0.00 0.00 0.00 1010.4
20260507092306 -17 0 12.9 17.7 0.00 0.00 0.00 1010.5
20260507091222 -17 0 6.4 19.3 0.00 0.00 0.00 1010.5
20260507090138 -17 23 8.0 12.9 0.00 0.00 0.00 1010.5
20260507085056 -17 315 11.3 16.1 0.00 0.00 0.00 1010.5
20260507084012 -17 270 12.9 16.1 0.00 0.00 0.00 1010.5
20260507082928 -17 270 8.0 11.3 0.00 0.00 0.00 1010.6
20260507081845 -17 90 3.2 11.3 0.00 0.00 0.00 1010.6
20260507080802 -17 315 8.0 9.7 0.00 0.00 0.00 1010.5
20260507075722 -17 338 3.2 9.7 0.00 0.00 0.00 1010.5
20260507074640 -17 315 4.8 11.3 0.00 0.00 0.00 1010.4
20260507073557 -17 23 6.4 12.9 0.00 0.00 0.00 1010.4
20260507072514 -17 270 11.3 17.7 0.00 0.00 0.00 1010.4
20260507071430 -17 270 6.4 19.3 0.00 0.00 0.00 1010.4
20260507070346 -17 270 14.5 25.7 0.00 0.00 0.00 1010.3
20260507065306 -17 293 4.8 20.9 0.00 0.00 0.00 1010.3
20260507064221 -17 270 9.7 17.7 0.00 0.00 0.00 1010.2
20260507063138 -17 225 9.7 14.5 0.00 0.00 0.00 1010.0
20260507062056 -17 315 4.8 12.9 0.00 0.00 0.00 1009.8
20260507061013 -17 270 11.3 16.1 0.00 0.00 0.00 1009.6
20260507055930 -17 270 3.2 12.9 0.00 0.00 0.00 1009.6
20260507054847 -17 0 8.0 16.1 0.00 0.00 0.00 1009.6
20260507053804 -17 23 6.4 14.5 0.00 0.00 0.00 1009.5
20260507052724 -17 0 1.6 8.0 0.00 0.00 0.00 1009.4
20260507051641 -17 0 4.8 11.3 0.00 0.00 0.00 1009.3
20260507050559 -17 45 4.8 8.0 0.00 0.00 0.00 1009.2
20260507045515 -17 270 4.8 12.9 0.00 0.00 0.00 1009.1
20260507043349 -17 270 14.5 14.5 0.00 0.00 0.00 1008.9
20260507042306 -17 270 4.8 12.9 0.00 0.00 0.00 1008.7
20260507041039 -17 225 1.6 6.4 0.00 0.00 0.00 1008.5
20260507035940 -17 225 0.0 9.7 0.00 0.00 0.00 1008.4
20260507034859 -17 270 3.2 12.9 0.00 0.00 0.00 1008.3
20260507033817 -17 90 3.2 8.0 0.00 0.00 0.00 1008.2
20260507032727 -17 225 6.4 6.4 0.00 0.00 0.00 1008.1
20260507031641 -17 225 3.2 4.8 0.00 0.00 0.00 1008.2
20260507030547 -17 135 3.2 4.8 0.00 0.00 0.00 1008.1
20260507025503 -17 135 1.6 4.8 0.00 0.00 0.00 1007.9
20260507024419 -17 180 1.6 8.0 0.00 0.00 0.00 1007.9
20260507023336 -17 270 3.2 6.4 0.00 0.00 0.00 1008.0
20260507022250 -17 270 6.4 8.0 0.00 0.00 0.00 1008.0
20260507021208 -17 135 1.6 3.2 0.00 0.00 0.00 1007.5
20260507020121 -17 135 0.0 4.8 0.00 0.00 0.00 1007.5
20260507015037 -17 90 1.6 3.2 0.00 0.00 0.00 1007.3
20260507013955 -17 135 0.0 1.6 0.00 0.00 0.00 1007.3
20260507012910 -17 225 0.0 0.0 0.00 0.00 0.00 1007.4
20260507011827 -17 225 0.0 3.2 0.00 0.00 0.00 1007.4
20260507010743 -17 315 0.0 1.6 0.00 0.00 0.00 1007.2
20260507005659 -17 0 0.0 3.2 0.00 0.00 0.00 1007.4
20260507004615 -17 315 0.0 6.4 0.00 0.00 0.00 1007.1
20260507003530 -17 315 1.6 4.8 0.00 0.00 0.00 1007.2
20260507002447 -17 315 0.0 6.4 0.00 0.00 0.00 1006.8
20260507001404 -17 315 1.6 4.8 0.00 0.00 0.00 1006.7
20260507000321 -17 45 3.2 4.8 0.00 0.00 0.00 1006.6
20260506235236 -17 0 1.6 4.8 0.00 0.00 0.00 1006.5
20260506234156 -17 315 0.0 1.6 0.00 0.00 0.00 1006.4
20260506233113 -17 0 0.0 3.2 0.00 0.00 0.00 1006.3
20260506232027 -17 0 3.2 6.4 0.00 0.00 0.00 1006.3
20260506230942 -17 0 1.6 9.7 0.00 0.00 0.00 1006.5
20260506225859 -17 23 6.4 8.0 0.00 0.00 0.00 1006.4
20260506224818 -17 45 6.4 12.9 0.00 0.00 0.00 1006.4
20260506223735 -17 0 4.8 9.7 0.00 0.00 0.00 1006.4
20260506222653 -17 0 3.2 9.7 0.00 0.00 0.00 1006.5
20260506221609 -17 23 4.8 12.9 0.00 0.00 0.00 1006.4
20260506220526 -17 45 6.4 17.7 0.00 0.00 0.00 1006.1
20260506215439 -17 315 4.8 11.3 0.00 0.00 0.00 1005.5
20260506214359 -17 270 3.2 4.8 0.00 0.00 0.00 1004.6
20260506213315 -17 0 3.2 3.2 0.00 0.00 0.00 1004.3
20260506212232 -17 135 0.0 1.6 0.00 0.00 0.00 1004.1